Home > Weather > Lakewood > Past weeks

Flag for USA Past Weather in Lakewood, Colorado, USA — Yesterday and Last 2 Weeks

Now
66 °F

Scattered clouds.


Feels Like: 66 °F
Forecast: 45 / 62 °F
Wind: No wind

Location: Centennial Airport

Current Time: May 25, 2016 at 8:56:03 PM

Latest Report: May 25, 2016 at 7:53 PM


Visibility: 10 mi

Pressure: 29.79 "Hg (24.47 "Hg at 1683m altitude)

Humidity: 27%

Dew Point: 31 °F

Location of LakewoodLocation

Past Weather in Lakewood — Graph

°F

Lakewood Temperature Yesterday

Maximum temperature yesterday: 75 °F (at 2:53 PM)
Minimum temperature yesterday: 40 °F (at 4:53 AM)
Average temperature yesterday: 58 °F

High & Low Weather Summary for the Past Weeks

 TemperatureHumidityPressure
High81 °F (May 21, 3:53 PM)96% (May 16, 9:53 AM)30.33 "Hg (May 16, 9:53 AM)
Low36 °F (May 12, 5:53 AM)10% (May 21, 5:53 PM)29.51 "Hg (May 22, 3:53 PM)
Average54 °F56%29.94 "Hg
* Reported May 10 7:53 PM — May 25 7:53 PM, Lakewood, Weather by CustomWeather, © 2016

Note: Actual official high and low records may vary slightly from our data, if they occured in-between our weather recording intervals... More about our weather records

Advertising

Lakewood Weather History for the Previous 24 Hours

Scroll right to see more
 ConditionsComfort  
Time TempWeatherWind HumidityBarometerVisibility
7:53 PM
Wed, May 25
66 °FScattered clouds.No wind27%29.79 "Hg10 mi
6:53 PM67 °FBroken clouds.8 mph31%29.79 "Hg10 mi
5:53 PM69 °FPartly sunny.7 mph27%29.80 "Hg10 mi
4:53 PM71 °FBroken clouds.13 mph28%29.80 "Hg10 mi
3:53 PM70 °FBroken clouds.10 mph28%29.81 "Hg10 mi
2:53 PM69 °FBroken clouds.16 mph29%29.82 "Hg10 mi
1:53 PM68 °FBroken clouds.8 mph30%29.84 "Hg10 mi
12:53 PM67 °FScattered clouds.8 mph31%29.87 "Hg10 mi
11:53 AM66 °FPassing clouds.10 mph31%29.88 "Hg10 mi
10:53 AM63 °FPassing clouds.8 mph37%29.90 "Hg10 mi
9:53 AM60 °FPassing clouds.No wind46%29.90 "Hg10 mi
8:53 AM58 °FPassing clouds.No wind47%29.90 "Hg10 mi
7:53 AM56 °FPassing clouds.5 mph53%29.90 "Hg10 mi
6:53 AM50 °FPassing clouds.3 mph74%29.89 "Hg10 mi
5:53 AM46 °FPassing clouds.6 mph79%29.88 "Hg10 mi
4:53 AM45 °FPassing clouds.6 mph82%29.85 "Hg10 mi
3:53 AM45 °FPassing clouds.3 mph82%29.83 "Hg10 mi
2:53 AM50 °FPassing clouds.8 mph77%29.78 "Hg10 mi
1:53 AM49 °FPassing clouds.6 mph74%29.78 "Hg10 mi
12:53 AM48 °FPassing clouds.3 mph86%29.78 "Hg10 mi
11:53 PM
Tue, May 24
51 °FPassing clouds.9 mph80%29.78 "Hg10 mi
10:53 PM55 °FPassing clouds.3 mph74%29.76 "Hg10 mi
9:53 PM58 °FPassing clouds.6 mph67%29.76 "Hg10 mi
8:53 PM60 °FPassing clouds.7 mph65%29.75 "Hg10 mi
Weather by CustomWeather, © 2016

See weather overviewHow to use our weather pages